• In Uzbekistan
  • List of Countries
  • For 7 days
  • Water Temperature
  • Weather Map
  • Weather Widgets
  • user-avatar
    Login

    Hourly Weather Viedma

    Today, 18 November, Monday

    Time Temperature Precipitation Wind Pressure Humidity
    00:00 +18°C° 0 mm 4 mps 754 mmHg 45%
    01:00 +18°C° 0 mm 4 mps 755 mmHg 44%
    02:00 +17°C° 0 mm 5 mps 755 mmHg 44%
    03:00 +17°C° 0 mm 4 mps 755 mmHg 45%
    04:00 +15°C° 0 mm 4 mps 756 mmHg 47%
    05:00 +14°C° 0 mm 4 mps 757 mmHg 49%
    06:00 +17°C° 0 mm 4 mps 757 mmHg 41%
    07:00 +19°C° 0 mm 5 mps 758 mmHg 33%
    08:00 +21°C° 0 mm 6 mps 759 mmHg 25%
    09:00 +21°C° 0 mm 5 mps 759 mmHg 24%
    10:00 +22°C° 0 mm 4 mps 759 mmHg 22%
    11:00 +24°C° 0 mm 3 mps 759 mmHg 21%
    12:00 +25°C° 0 mm 4 mps 759 mmHg 20%
    13:00 +25°C° 0 mm 4 mps 759 mmHg 19%
    14:00 +26°C° 0 mm 4 mps 758 mmHg 19%
    15:00 +26°C° 0 mm 4 mps 758 mmHg 20%
    16:00 +25°C° 0 mm 3 mps 758 mmHg 21%
    17:00 +24°C° 0 mm 3 mps 758 mmHg 21%
    18:00 +21°C° 0 mm 4 mps 758 mmHg 27%
    19:00 +19°C° 0 mm 5 mps 758 mmHg 33%
    20:00 +16°C° 0 mm 6 mps 758 mmHg 39%
    21:00 +16°C° 0 mm 6 mps 758 mmHg 41%
    22:00 +15°C° 0 mm 6 mps 758 mmHg 42%
    23:00 +15°C° 0 mm 6 mps 758 mmHg 44%

    Tomorrow, 19 November, Tuesday

    Time Temperature Precipitation Wind Pressure Humidity
    00:00 +14°C° 0 mm 5 mps 758 mmHg 48%
    01:00 +14°C° 0 mm 5 mps 758 mmHg 52%
    02:00 +13°C° 0 mm 4 mps 758 mmHg 56%
    03:00 +13°C° 0 mm 4 mps 757 mmHg 58%
    04:00 +13°C° 0 mm 5 mps 757 mmHg 59%
    05:00 +13°C° 0 mm 5 mps 757 mmHg 61%
    06:00 +16°C° 0 mm 6 mps 757 mmHg 50%
    07:00 +20°C° 0 mm 6 mps 756 mmHg 39%
    08:00 +22°C° 0 mm 7 mps 756 mmHg 28%
    09:00 +26°C° 0 mm 7 mps 756 mmHg 24%
    10:00 +31°C° 0 mm 8 mps 755 mmHg 19%
    11:00 +34°C° 0 mm 9 mps 754 mmHg 15%
    12:00 +35°C° 0 mm 9 mps 753 mmHg 14%
    13:00 +37°C° 0 mm 10 mps 752 mmHg 13%
    14:00 +38°C° 0 mm 10 mps 751 mmHg 12%
    15:00 +38°C° 0 mm 10 mps 750 mmHg 14%
    16:00 +38°C° 0 mm 10 mps 749 mmHg 15%
    17:00 +38°C° 0 mm 9 mps 748 mmHg 17%
    18:00 +33°C° 0.2 mm 9 mps 748 mmHg 25%
    19:00 +29°C° 0.2 mm 8 mps 748 mmHg 34%
    20:00 +26°C° 0.2 mm 7 mps 748 mmHg 43%
    21:00 +24°C° 0 mm 9 mps 749 mmHg 42%
    22:00 +24°C° 0 mm 10 mps 750 mmHg 41%
    23:00 +24°C° 0 mm 12 mps 751 mmHg 39%

    Day after tomorrow, 20 November, Wednesday

    Time Temperature Precipitation Wind Pressure Humidity
    00:00 +22°C° 0 mm 10 mps 752 mmHg 40%
    01:00 +19°C° 0 mm 9 mps 753 mmHg 41%
    02:00 +17°C° 0 mm 7 mps 754 mmHg 41%
    03:00 +16°C° 0 mm 6 mps 755 mmHg 41%
    04:00 +15°C° 0 mm 5 mps 756 mmHg 40%
    05:00 +13°C° 0 mm 5 mps 757 mmHg 40%
    06:00 +15°C° 0 mm 5 mps 757 mmHg 34%
    07:00 +16°C° 0 mm 5 mps 758 mmHg 28%
    08:00 +17°C° 0 mm 5 mps 758 mmHg 23%
    09:00 +19°C° 0 mm 4 mps 758 mmHg 21%
    10:00 +20°C° 0 mm 4 mps 758 mmHg 19%
    11:00 +21°C° 0 mm 3 mps 758 mmHg 17%
    12:00 +22°C° 0 mm 3 mps 758 mmHg 16%
    13:00 +24°C° 0 mm 3 mps 758 mmHg 15%
    14:00 +25°C° 0 mm 3 mps 757 mmHg 14%
    15:00 +23°C° 0 mm 4 mps 757 mmHg 18%
    16:00 +21°C° 0 mm 5 mps 756 mmHg 22%
    17:00 +20°C° 0 mm 6 mps 756 mmHg 25%
    18:00 +17°C° 0 mm 7 mps 756 mmHg 31%
    19:00 +16°C° 0 mm 7 mps 755 mmHg 36%
    20:00 +13°C° 0 mm 8 mps 755 mmHg 41%
    21:00 +13°C° 0 mm 8 mps 755 mmHg 44%
    22:00 +13°C° 0 mm 8 mps 754 mmHg 46%
    23:00 +13°C° 0 mm 9 mps 754 mmHg 49%

    21 November, Thursday

    Time Temperature Precipitation Wind Pressure Humidity
    00:00 +13°C° 0 mm 9 mps 754 mmHg 49%
    01:00 +13°C° 0 mm 8 mps 753 mmHg 50%
    02:00 +13°C° 0 mm 8 mps 753 mmHg 50%
    03:00 +14°C° 0 mm 6 mps 754 mmHg 51%
    04:00 +13°C° 0 mm 4 mps 754 mmHg 52%
    05:00 +14°C° 0 mm 2 mps 754 mmHg 53%
    06:00 +15°C° 0 mm 5 mps 755 mmHg 46%
    07:00 +17°C° 0 mm 8 mps 756 mmHg 39%
    08:00 +19°C° 0 mm 11 mps 756 mmHg 32%
    09:00 +19°C° 0 mm 11 mps 757 mmHg 30%
    10:00 +19°C° 0 mm 10 mps 757 mmHg 28%
    11:00 +21°C° 0 mm 10 mps 758 mmHg 25%
    12:00 +21°C° 0 mm 9 mps 758 mmHg 24%
    13:00 +21°C° 0 mm 8 mps 758 mmHg 22%
    14:00 +21°C° 0 mm 8 mps 758 mmHg 21%
    15:00 +21°C° 0 mm 7 mps 759 mmHg 20%
    16:00 +21°C° 0 mm 5 mps 759 mmHg 20%
    17:00 +20°C° 0 mm 4 mps 759 mmHg 19%
    18:00 +18°C° 0 mm 4 mps 759 mmHg 24%
    19:00 +15°C° 0 mm 4 mps 760 mmHg 29%
    20:00 +13°C° 0 mm 3 mps 760 mmHg 34%
    21:00 +12°C° 0 mm 3 mps 760 mmHg 37%
    22:00 +12°C° 0 mm 2 mps 761 mmHg 40%
    23:00 +12°C° 0 mm 2 mps 761 mmHg 44%

    22 November, Friday

    Time Temperature Precipitation Wind Pressure Humidity
    00:00 +10°C° 0 mm 2 mps 761 mmHg 44%
    01:00 +10°C° 0 mm 2 mps 761 mmHg 45%
    02:00 +10°C° 0 mm 1 mps 761 mmHg 46%
    03:00 +10°C° 0 mm 1 mps 761 mmHg 47%
    04:00 +10°C° 0 mm 1 mps 762 mmHg 48%
    05:00 +10°C° 0 mm 1 mps 762 mmHg 49%
    06:00 +13°C° 0 mm 2 mps 762 mmHg 41%
    07:00 +16°C° 0 mm 3 mps 762 mmHg 33%
    08:00 +19°C° 0 mm 3 mps 763 mmHg 25%
    09:00 +21°C° 0 mm 4 mps 763 mmHg 23%
    10:00 +23°C° 0 mm 5 mps 763 mmHg 20%
    11:00 +26°C° 0 mm 5 mps 763 mmHg 17%
    12:00 +26°C° 0 mm 6 mps 762 mmHg 18%
    13:00 +26°C° 0 mm 7 mps 762 mmHg 18%
    14:00 +26°C° 0 mm 8 mps 761 mmHg 18%
    15:00 +24°C° 0 mm 8 mps 761 mmHg 21%
    16:00 +23°C° 0 mm 8 mps 760 mmHg 25%
    17:00 +21°C° 0 mm 9 mps 760 mmHg 28%
    18:00 +18°C° 0 mm 9 mps 760 mmHg 35%
    19:00 +17°C° 0 mm 8 mps 760 mmHg 43%
    20:00 +15°C° 0 mm 8 mps 760 mmHg 50%
    21:00 +15°C° 0 mm 8 mps 760 mmHg 52%
    22:00 +15°C° 0 mm 8 mps 760 mmHg 53%
    23:00 +15°C° 0 mm 9 mps 760 mmHg 54%

    23 November, Saturday

    Time Temperature Precipitation Wind Pressure Humidity
    00:00 +15°C° 0 mm 9 mps 760 mmHg 55%
    01:00 +15°C° 0 mm 9 mps 759 mmHg 56%
    02:00 +15°C° 0 mm 9 mps 759 mmHg 58%
    03:00 +15°C° 0 mm 8 mps 759 mmHg 56%
    04:00 +15°C° 0 mm 8 mps 758 mmHg 55%
    05:00 +15°C° 0 mm 7 mps 758 mmHg 54%
    06:00 +17°C° 0 mm 8 mps 758 mmHg 48%
    07:00 +19°C° 0 mm 9 mps 758 mmHg 42%
    08:00 +21°C° 0 mm 10 mps 758 mmHg 36%
    09:00 +23°C° 0 mm 10 mps 758 mmHg 32%
    10:00 +26°C° 0 mm 10 mps 757 mmHg 28%
    11:00 +27°C° 0 mm 11 mps 757 mmHg 23%
    12:00 +26°C° 0.5 mm 10 mps 756 mmHg 31%
    13:00 +23°C° 0.5 mm 10 mps 756 mmHg 39%
    14:00 +21°C° 0.5 mm 9 mps 755 mmHg 48%
    15:00 +19°C° 0.6 mm 9 mps 755 mmHg 54%
    16:00 +19°C° 0.6 mm 9 mps 754 mmHg 60%
    17:00 +18°C° 0.6 mm 9 mps 754 mmHg 66%
    18:00 +17°C° 0.2 mm 9 mps 754 mmHg 70%
    19:00 +17°C° 0.2 mm 9 mps 753 mmHg 74%
    20:00 +16°C° 0.2 mm 9 mps 753 mmHg 78%
    21:00 +16°C° 0 mm 9 mps 753 mmHg 77%
    22:00 +16°C° 0 mm 10 mps 753 mmHg 77%
    23:00 +16°C° 0 mm 10 mps 752 mmHg 76%
    Show more